Weather in Tarlac City

Philippines     15°29′04″N   120°35′39″E
temp.,
°C
wind,
m/s
gust,
m/s
humid.,
%
clouds,
%
prec.,
mm/h
press.,
hPa
HPBL,
m
24 may, tue
tue2423:00+26ssw228093 0.0 101152
02:00+25s228273 0.0 101047
05:00+24se118719 0.0 101128
08:00+28sse33716 0.0 1012528
11:00+32se345511 0.0 10101384
14:00+33se3452100 0.0 10081221
17:00+32sse3559100 0.0 1008274
20:00+28sw137457 0.9 101070
25 may, wed
wed2523:00+27w1180100 0.1 101218
02:00+26w118397 0.1 101012
05:00+25sw018652 0.0 101012
08:00+28ese117372 0.0 1011481
11:00+33se2354100 0.0 10091630
14:00+34e1245100 0.1 10062005
17:00+31w126040 0.4 1006371
20:00+27sse018191 1.8 100933
26 may, thu
thu2623:00+25ssw128695 3.1 101035
02:00+25sse1290100 3.1 100936
05:00+24ssw1291100 0.0 100832
08:00+27sse237999 0.0 1009411
11:00+32se335668 0.0 10071208
14:00+35se444627 0.0 10051938
17:00+31sw356464 0.4 1005243
20:00+26wsw118246 3.1 100746
27 may, fri
fri2723:00+25nw2287100 1.5 100937
02:00+25ne008999 1.5 100812
05:00+24ssw1190100 0.0 100811
08:00+28se237338 0.0 1009471
11:00+33se345210 0.0 10081551
14:00+34s444787 0.1 10052140
17:00+32ssw235547 0.1 1005794
20:00+28ene017395 0.3 100718
28 may, sat
sat2823:00+26sw2277100 0.0 100923
02:00+26ssw1180100 0.0 100722
05:00+25sse1183100 0.0 100730
08:00+28sse347132 0.0 1008618
11:00+33sse4550100 0.0 10081766
14:00+34se5544100 0.0 10052059
17:00+31s4659100 0.6 1005956
20:00+27s367796 1.1 1007158